ONEWEB-0668, 56711

Orbit data source: Space-Track

ONEWEB-0668, 56711 is a payload satellite owned by One Web (NAA) (UK) in LEO that was launched on Sat, 20 May 2023 UTC via an FALCON 9 launch vehicle from the Air Force Western Test Range (AFWTR). Payloads include a variety of satellites, spacecraft, and rockets equipped with specific instruments for various scientific and technological missions. These include communications satellites like Starlink; space stations such as the ISS; scientific satellites like the Hubble; Earth observation satellites from companies like Planet Labs, Umbra, and HawkEye 360; GPS; miniature CubeSats for education and research; and military/defense satellites.

Loading next visibility...
ONEWEB-0668 details
Identifier
56711, 2023-068B
Orbit
LEO
Last TLE update17 hours ago
Origin
Flag of UKOne Web (NAA) (UK)
ManufacturerOne Web
MissionOperational Commercial Communications
Bus & MotorARROW, Unknown motor
Mass148 kg wet, ~140 kg dry
Launch date (UTC)
2023-05-20 (2 years ago)
Launch vehicle
FALCON 9
Launch site
Air Force Western Test Range (AFWTR)
Object type
Payload
Rocket body
Debris
Shape & HBRTrap Box + 2 Pan, 5 m
Radar Cross Section2.032 m², Large (>1 m²)

Expand to show TLE details & history

TLE from 17 hours ago
0 ONEWEB-0668
1 56711U 23068B   25014.92938563  .00000119  00000-0  27796-3 0  9991
2 56711  87.9102 332.0250 0002392  82.8725 277.2678 13.16594643 84285
Epoch: 2025-01-14T22:18Z
Definitive object data (Epoch: 2025-01-14T22:18:18.918Z)
Latitude-0°
Longitude-117.18286°
Altitude1,200.423 km
Speed7.254 km/s
True Right ascension22h 08m 05s
True Declination0° 00' 00"
Sunlit
Object was in daylight at TLE epoch
Visualization TLE readout
Latitude20.87078°
Longitude61.88147°
Altitude1,199.96 km
Speed7.256 km/s
Apparent Right ascension07h 48m 19s
Apparent Declination-8° 59' 36"
Sunlit
Object is in full shadow
Visualization observer readout
Local Sidereal Time16:12:25
Azimuth287.565° WNW
Elevation-33.084°
Doppler factor1
Orbital elements
Apogee altitude1,196.677 km
Perigee altitude1,193.054 km
Semi-major axis7,573.003 km
Eccentricity0.0002392
Inclination87.9102°
RAAN332.025°
Arg. of periapsis82.8725°
True anomaly277.24061°
Mean anomaly277.2678°
Eccentric anomaly277.2542°
Mean motion3.29337 °/min
BSTAR0.00027796
Orbital period109.31 mins
Loading maneuver chart data...
Loading historical data...
Loading historical data...
Loading historical data...
Loading historical data...
Loading historical data...
Loading historical data...
Loading historical data...

ONEWEB-0668 Visibility forecast

Observer location: undefined°, undefined

Span
Click to sort rows by Start time (UTC) header in descending order
Start Az.
Max El. time (UTC)
Max El. Az.
Max El.
End time (UTC)
End Az.
11 mins2025-01-15 20:18:33.329Z132.994° SE2025-01-15 20:24:33.329Z71.39° E26.475°2025-01-15 20:29:33.329Z23.882° NE
12 mins2025-01-15 22:07:33.329Z207.33° SW2025-01-15 22:13:33.329Z284.602° WNW36.292°2025-01-15 22:19:33.329Z347.442° N
8 mins2025-01-16 07:46:33.329Z39.807° NE2025-01-16 07:50:33.329Z81.633° E21.054°2025-01-16 07:54:33.329Z119.573° SE
12 mins2025-01-16 09:34:33.329Z349.717° N2025-01-16 09:39:33.329Z294.059° NW41.209°2025-01-16 09:46:33.329Z196.901° SSW
|